Walbridge, OH

6:49 AM EST on February 13, 2016 (GMT -0500)
Metcalf

Weather History for KTDZ - January, 2014

Change the Weather History Date:

Monday, January 6, 2014

  Actual Average (KTOL) Record (KTOL)
Temperature  
Mean Temperature 4 °F 26 °F  
Max Temperature 21 °F 33 °F 62 °F (1946)
Min Temperature -13 °F 19 °F -15 °F (2014)
Degree Days  
Heating Degree Days 61 39  
Month to date heating degree days 234  
Since 1 July heating degree days 2559  
Cooling Degree Days 0 0  
Month to date cooling degree days 0  
Year to date cooling degree days 0  
Moisture  
Dew Point -6 °F    
Average Humidity 71    
Maximum Humidity 86    
Minimum Humidity 60    
Precipitation  
Precipitation 0.00 in 0.07 in 0.35 in (1969)
Month to date precipitation 0.45  
Year to date precipitation 0.45  
Snow  
Snow 0.00 in 0.40 in - ()
Month to date snowfall 2.1  
Since 1 July snowfall 11.6  
Snow Depth -    
Sea Level Pressure  
Sea Level Pressure 29.95 in    
Wind  
Wind Speed 25 mph (WSW)    
Max Wind Speed 31 mph    
Max Gust Speed 41 mph    
Visibility 3 miles    
Events Snow    
T = Trace of Precipitation, MM = Missing Value Source: NWS Daily Summary

Daily Weather History Graph

Daily Weather History Graph

Search for Another Location

Airport or City:

Trip Planner

Search our weather history database for the weather conditions in past years. The results will help you decide how hot, cold, wet, or windy it might be!

Date:

Astronomy

Jan. 06, 2014 Rise Set
Actual Time 8:00 AM EST 5:19 PM EST
Civil Twilight 7:29 AM EST 5:50 PM EST
Nautical Twilight 6:54 AM EST 6:25 PM EST
Astronomical Twilight 6:21 AM EST 6:58 PM EST
Moon 11:10 AM EST (1/6) 11:56 PM EST (1/6)
Length of Visible Light 10h 20m
Length of Day
9h 18m
Waxing Crescent, 34% of the Moon is Illuminated
Jan 6
Waxing Crescent
Jan 7
First Quarter
Jan 15
Full
Jan 24
Last Quarter
Jan 30
New

Hourly Weather History & Observations

Time (EST) Temp. Windchill Dew Point Humidity Pressure Visibility Wind Dir Wind Speed Gust Speed Precip Events Conditions
12:09 AM 21.2 °F 3.3 °F 17.6 °F 86% 29.57 in 1.8 mi NW 28.8 mph 39.1 mph 0.00 in Snow Light Snow
12:26 AM 21.2 °F 3.9 °F 15.8 °F 80% 29.58 in 2.0 mi NW 26.5 mph 35.7 mph 0.00 in Snow Light Snow
12:38 AM 21.2 °F 3.9 °F 15.8 °F 80% 29.59 in 1.8 mi NW 26.5 mph 34.5 mph 0.00 in Snow Light Snow
12:48 AM 21.2 °F 2.7 °F 15.8 °F 80% 29.60 in 1.0 mi NW 31.1 mph 41.4 mph 0.00 in Snow Light Snow
12:53 AM 19.9 °F 2.8 °F 16.0 °F 85% 29.62 in 1.0 mi NW 24.2 mph 41.4 mph 0.00 in Snow Light Snow
1:05 AM 19.4 °F 2.8 °F 15.8 °F 86% 29.60 in 1.5 mi NW 21.9 mph 31.1 mph 0.00 in Snow Light Snow
1:12 AM 19.4 °F 1.8 °F 15.8 °F 86% 29.60 in 2.0 mi NW 25.3 mph 31.1 mph 0.00 in Snow Light Snow
1:34 AM 19.4 °F 1.8 °F 15.8 °F 86% 29.63 in 1.8 mi WNW 25.3 mph 32.2 mph 0.00 in Snow Light Snow
1:53 AM 19.0 °F 1.3 °F 14.0 °F 81% 29.67 in 1.5 mi NW 25.3 mph 35.7 mph 0.00 in Snow Light Snow
2:07 AM 19.4 °F 2.5 °F 12.2 °F 74% 29.66 in 3.0 mi NW 23.0 mph - 0.00 in Snow Light Snow
2:53 AM 17.1 °F -0.6 °F 10.9 °F 77% 29.73 in 8.0 mi WNW 23.0 mph 32.2 mph 0.00 in   Scattered Clouds
3:53 AM 16.0 °F -1.3 °F 9.0 °F 74% 29.78 in 10.0 mi WNW 20.7 mph 28.8 mph 0.00 in   Scattered Clouds
4:53 AM 15.1 °F -1.1 °F 9.0 °F 77% 29.81 in 10.0 mi West 17.3 mph - N/A   Partly Cloudy
5:53 AM 15.1 °F -1.1 °F 8.1 °F 74% 29.85 in 10.0 mi West 17.3 mph - N/A   Mostly Cloudy
6:13 AM 15.8 °F 0.3 °F 8.6 °F 73% 29.83 in 8.0 mi West 16.1 mph 26.5 mph 0.00 in Snow Light Snow
6:46 AM 12.2 °F -7.5 °F 8.6 °F 85% 29.84 in 1.8 mi WSW 24.2 mph - 0.00 in Snow Light Snow
6:53 AM 12.9 °F -5.7 °F 8.1 °F 81% 29.87 in 1.5 mi WSW 21.9 mph 31.1 mph 0.00 in Snow Light Snow
7:03 AM 12.2 °F -7.5 °F 6.8 °F 79% 29.86 in 2.5 mi WSW 24.2 mph 29.9 mph 0.00 in Snow Light Snow
7:28 AM 10.4 °F -9.5 °F 3.2 °F 73% 29.87 in 3.0 mi West 23.0 mph 34.5 mph 0.00 in Snow Light Snow
7:53 AM 8.1 °F -14.2 °F 1.9 °F 76% 29.92 in 4.0 mi West 27.6 mph 34.5 mph 0.00 in Snow Light Snow
8:03 AM 8.6 °F -11.9 °F 1.4 °F 73% 29.90 in 2.5 mi West 23.0 mph 36.8 mph 0.00 in Snow Light Snow
8:25 AM 6.8 °F -14.7 °F -0.4 °F 72% 29.91 in 1.8 mi West 24.2 mph 33.4 mph 0.00 in Snow Light Snow
8:34 AM 6.8 °F -14.3 °F -0.4 °F 72% 29.92 in 2.0 mi West 23.0 mph 29.9 mph 0.00 in Snow Light Snow
8:38 AM 6.8 °F -15.1 °F -0.4 °F 72% 29.93 in 1.8 mi WSW 25.3 mph 32.2 mph 0.00 in Snow Light Snow
8:49 AM 3.2 °F -19.9 °F -2.2 °F 78% 29.94 in 0.8 mi WSW 25.3 mph 35.7 mph 0.00 in Snow Light Snow
8:53 AM 3.9 °F -19.4 °F -2.9 °F 73% 29.97 in 0.8 mi WSW 26.5 mph 35.7 mph 0.00 in Snow Light Snow
9:53 AM -0.0 °F -22.4 °F -7.1 °F 72% 30.01 in 1.0 mi WSW 20.7 mph 32.2 mph 0.00 in Snow Light Snow
10:00 AM -0.4 °F -25.6 °F -7.6 °F 72% 29.98 in 1.2 mi WSW 27.6 mph 36.8 mph 0.00 in Snow Light Snow
10:08 AM -0.4 °F -25.2 °F -7.6 °F 72% 29.98 in 1.0 mi WSW 26.5 mph 35.7 mph 0.00 in Snow Light Snow
10:17 AM -2.2 °F -28.0 °F -9.4 °F 71% 29.98 in 0.8 mi WSW 27.6 mph 35.7 mph 0.00 in Snow Light Snow
10:23 AM -0.4 °F -23.3 °F -9.4 °F 66% 29.99 in 1.2 mi WSW 21.9 mph 33.4 mph 0.00 in   Overcast
10:53 AM -2.9 °F -28.6 °F -11.0 °F 68% 30.04 in 1.5 mi WSW 26.5 mph 34.5 mph 0.00 in   Partly Cloudy
11:09 AM -4.0 °F -29.1 °F -11.2 °F 71% 30.00 in 2.0 mi WSW 24.2 mph 33.4 mph 0.00 in   Clear
11:29 AM -5.8 °F -32.0 °F -13.0 °F 71% 30.00 in 1.2 mi WSW 25.3 mph 34.5 mph 0.00 in   Scattered Clouds
11:37 AM -5.8 °F -32.0 °F -13.0 °F 71% 30.00 in 1.5 mi WSW 25.3 mph 33.4 mph 0.00 in   Mostly Cloudy
11:53 AM -5.1 °F -30.5 °F -13.0 °F 69% 30.04 in 2.5 mi WSW 24.2 mph 34.5 mph 0.00 in   Mostly Cloudy
12:03 PM -5.8 °F -32.0 °F -14.8 °F 65% 30.00 in 2.0 mi WSW 25.3 mph 35.7 mph 0.00 in   Scattered Clouds
12:37 PM -5.8 °F -31.5 °F -14.8 °F 65% 30.00 in 1.5 mi WSW 24.2 mph 36.8 mph 0.00 in   Clear
12:53 PM -5.1 °F -31.9 °F -14.1 °F 65% 30.04 in 1.8 mi WSW 27.6 mph 35.7 mph 0.00 in   Clear
1:01 PM -5.8 °F -32.4 °F -14.8 °F 65% 29.99 in 2.5 mi WSW 26.5 mph 35.7 mph 0.00 in   Clear
1:53 PM -6.0 °F -32.2 °F -15.0 °F 65% 30.04 in 2.5 mi WSW 25.3 mph 32.2 mph 0.00 in   Clear
2:11 PM -5.8 °F -33.3 °F -16.6 °F 60% 30.00 in 1.5 mi WSW 28.8 mph 35.7 mph 0.00 in   Clear
2:22 PM -5.8 °F -31.5 °F -14.8 °F 65% 30.01 in 3.0 mi WSW 24.2 mph 35.7 mph 0.00 in   Clear
2:32 PM -5.8 °F -32.0 °F -16.6 °F 60% 30.01 in 2.5 mi WSW 25.3 mph 34.5 mph 0.00 in   Clear
2:53 PM -7.1 °F -35.0 °F -16.1 °F 65% 30.07 in 2.5 mi WSW 28.8 mph 36.8 mph 0.00 in   Clear
3:39 PM -7.6 °F -33.4 °F -16.6 °F 65% 30.06 in 3.0 mi WSW 23.0 mph 34.5 mph 0.00 in   Clear
3:49 PM -9.4 °F -36.8 °F -16.6 °F 71% 30.07 in 2.0 mi WSW 25.3 mph 34.5 mph 0.00 in   Clear
3:53 PM -9.0 °F -35.3 °F -18.0 °F 65% 30.12 in 2.0 mi WSW 23.0 mph 33.4 mph 0.00 in   Clear
4:23 PM -9.4 °F -35.8 °F -18.4 °F 65% 30.09 in 4.0 mi WSW 23.0 mph 28.8 mph 0.00 in   Clear
4:34 PM -9.4 °F -35.2 °F -18.4 °F 65% 30.09 in 2.0 mi WSW 21.9 mph 38.0 mph 0.00 in   Clear
4:44 PM -9.4 °F -37.3 °F -18.4 °F 65% 30.10 in 3.0 mi WSW 26.5 mph 32.2 mph 0.00 in   Clear
4:53 PM -9.9 °F -37.0 °F -18.9 °F 65% 30.15 in 2.0 mi WSW 24.2 mph 33.4 mph 0.00 in   Clear
5:06 PM -11.2 °F -38.7 °F -18.4 °F 70% 30.11 in 4.0 mi WSW 24.2 mph 32.2 mph 0.00 in   Haze
5:22 PM -11.2 °F -40.1 °F -18.4 °F 70% 30.12 in 1.8 mi WSW 27.6 mph 36.8 mph 0.00 in   Clear
5:32 PM -11.2 °F -38.2 °F -20.2 °F 64% 30.12 in 3.0 mi WSW 23.0 mph 35.7 mph 0.00 in   Clear
5:53 PM -11.9 °F -39.1 °F -20.0 °F 67% 30.18 in 5.0 mi WSW 23.0 mph 33.4 mph 0.00 in   Haze
6:53 PM -13.0 °F -39.4 °F -20.9 °F 68% 30.22 in 5.0 mi WSW 20.7 mph 31.1 mph 0.00 in   Haze
7:53 PM -13.0 °F -39.4 °F -22.0 °F 64% 30.24 in 8.0 mi WSW 20.7 mph 29.9 mph N/A   Clear
8:53 PM -13.0 °F -40.0 °F -22.0 °F 64% 30.24 in 6.0 mi WSW 21.9 mph 32.2 mph N/A   Haze
9:53 PM -13.0 °F -39.4 °F -22.0 °F 64% 30.25 in 9.0 mi WSW 20.7 mph 29.9 mph N/A   Partly Cloudy
10:53 PM -13.0 °F -39.4 °F -22.0 °F 64% 30.25 in 8.0 mi WSW 20.7 mph - N/A   Clear
11:53 PM -13.0 °F -37.5 °F -22.0 °F 64% 30.25 in 10.0 mi SW 17.3 mph 24.2 mph N/A   Clear